Starlink 3911

operational
NORAD ID: 52565 Int'l Des: 2022-051 Owner: SPXS Country: US Constellation: starlink
LEOCIRCULAR

About Starlink 3911

Description loading...

Live Position

Loading 3D Globe...

Upcoming Passes

Altitude History

Altitude vs Time

uPlot chart will show altitude changes over time

Two-Line Element Set

1 52565U 22051AJ 26048.44154505 .00000236 00000-0 32898-4 0 9996
2 52565 53.2163 210.0171 0001340 98.6520 261.4624 15.08838912208522
Epoch: Feb 17, 2026 • Age: 13 hours

Current Status

Altitude 543.7 km
Velocity 7.60 km/s
Sub-Earth Point 45.69°N, 167.51°W
Launch Date May 13, 2022
Age 3.7 years
Type internet

Technical Details

Classification Payload
Mass 297.00 kg
Dry Mass 275.00 kg
Total Mass 297.00 kg
Length 0.20 m
Diameter 2.80 m
Span 9.00 m
Shape Box + pan
Manufacturer SPXS
Bus Type Starlink
Phase Status In Orbit
Owner/State SPXS/US

Large Constellations

Loading constellations...